DW0417 Weather Reports


time (UTC)temp
C
wind
direction
speed
KPH
gust
KPH
rain 1hr
cm
rain 24hr
cm
rain mn
cm
humidity
%
barometer
mb
20260504210536 17 174 17.7 37.0 0.00 0.00 0.00 43 1007.2
20260504205536 16 167 8.0 30.6 0.00 0.00 0.00 46 1007.5
20260504204535 18 222 11.3 30.6 0.00 0.00 0.00 37 1007.9
20260504203535 20 231 9.7 20.9 0.00 0.00 0.00 32 1007.7
20260504202533 20 293 17.7 33.8 0.00 0.00 0.00 34 1006.7
20260504201533 19 359 24.1 41.8 0.00 0.00 0.00 33 1006.8
20260504201022 20 347 20.9 35.4 0.00 0.00 0.00 30 1006.9
20260504195533 21 81 24.1 38.6 0.00 0.00 0.00 28 1006.7
20260504194533 21 88 12.9 27.4 0.00 0.00 0.00 24 1006.5
20260504194015 22 91 6.4 14.5 0.00 0.00 0.00 24 1006.5
20260504192533 22 156 4.8 12.9 0.00 0.00 0.00 22 1006.3
20260504192017 21 195 6.4 16.1 0.00 0.00 0.00 21 1006.2
20260504190533 21 156 8.0 17.7 0.00 0.00 0.00 23 1006.2
20260504185533 21 96 8.0 16.1 0.00 0.00 0.00 24 1006.3
20260504184532 21 90 12.9 25.7 0.00 0.00 0.00 25 1006.5
20260504183534 22 176 11.3 22.5 0.00 0.00 0.00 26 1006.7
20260504182533 21 126 11.3 22.5 0.00 0.00 0.00 27 1006.9
20260504181532 21 103 16.1 29.0 0.00 0.00 0.00 27 1006.9
20260504180533 21 97 17.7 32.2 0.00 0.00 0.00 28 1007.2
20260504180011 20 103 19.3 32.2 0.00 0.00 0.00 30 1007.4
20260504174531 20 76 17.7 32.2 0.00 0.00 0.00 29 1007.6
20260504173532 20 86 17.7 33.8 0.00 0.00 0.00 31 1007.7
20260504172529 19 91 14.5 32.2 0.00 0.00 0.00 32 1008.0
20260504171529 18 98 14.5 29.0 0.00 0.00 0.00 32 1008.1
20260504171004 18 139 14.5 32.2 0.00 0.00 0.00 32 1008.2
20260504150528 17 107 4.8 11.3 0.00 0.00 0.00 33 1008.5
20260504110518 6 85 0.0 4.8 0.00 0.00 0.00 63 1008.3
20260504100519 7 309 1.6 4.8 0.00 0.00 0.00 53 1008.6
20260504081514 7 165 0.0 0.0 0.00 0.00 0.00 54 1009.4
20260504080514 7 165 0.0 0.0 0.00 0.00 0.00 55 1009.4
20260504050505 16 167 8.0 20.9 0.00 0.00 0.00 31 1010.2
20260504045505 16 186 4.8 11.3 0.00 0.00 0.00 33 1010.0
20260504044506 16 97 6.4 9.7 0.00 0.00 0.00 31 1009.6
20260504043507 17 110 4.8 9.7 0.00 0.00 0.00 31 1009.6
20260504042506 17 79 6.4 11.3 0.00 0.00 0.00 30 1009.7
20260504041506 17 94 6.4 9.7 0.00 0.00 0.00 30 1009.9
20260504040507 17 77 6.4 14.5 0.00 0.00 0.00 30 1010.0
20260504035507 17 96 8.0 17.7 0.00 0.00 0.00 30 1010.1
20260504034957 18 86 9.7 19.3 0.00 0.00 0.00 30 1010.0
20260504033949 18 72 8.0 16.1 0.00 0.00 0.00 30 1010.1
20260504032947 18 76 8.0 16.1 0.00 0.00 0.00 30 1010.1
20260504031503 18 81 9.7 17.7 0.00 0.00 0.00 29 1010.0
20260504030504 18 73 9.7 19.3 0.00 0.00 0.00 29 1010.0
20260504025503 18 82 9.7 20.9 0.00 0.00 0.00 28 1010.0
20260504024504 18 79 14.5 25.7 0.00 0.00 0.00 27 1010.0
20260504023504 19 75 9.7 24.1 0.00 0.00 0.00 27 1009.9
20260504022503 19 110 8.0 16.1 0.00 0.00 0.00 27 1009.9
20260504021938 19 101 9.7 16.1 0.00 0.00 0.00 27 1009.7
20260504020939 19 91 9.7 20.9 0.00 0.00 0.00 26 1009.7
20260504015458 19 89 11.3 19.3 0.00 0.00 0.00 26 1009.7
20260504014931 19 67 6.4 16.1 0.00 0.00 0.00 25 1009.6
20260504013454 20 78 4.8 9.7 0.00 0.00 0.00 25 1009.5
20260504012453 20 108 6.4 14.5 0.00 0.00 0.00 25 1009.5
20260504011454 20 104 8.0 14.5 0.00 0.00 0.00 24 1009.5
20260504010454 20 124 11.3 20.9 0.00 0.00 0.00 25 1009.5
20260504005453 21 129 14.5 30.6 0.00 0.00 0.00 24 1009.7
20260504004937 21 131 9.7 22.5 0.00 0.00 0.00 25 1010.1
20260504003453 20 111 19.3 33.8 0.00 0.00 0.00 25 1010.2
20260504002453 20 103 9.7 25.7 0.00 0.00 0.00 25 1010.1
20260504001452 20 78 3.2 12.9 0.00 0.00 0.00 27 1010.3
20260504000451 20 347 6.4 11.3 0.00 0.00 0.00 26 1010.3
20260503235451 20 72 11.3 32.2 0.00 0.00 0.00 27 1010.4
20260503234453 20 110 11.3 27.4 0.00 0.00 0.00 27 1010.7
20260503233452 20 120 16.1 29.0 0.00 0.00 0.00 28 1010.7
20260503232451 21 153 11.3 30.6 0.00 0.00 0.00 24 1010.3
20260503231452 22 147 8.0 22.5 0.00 0.00 0.00 23 1010.2
20260503230446 22 335 8.0 17.7 0.00 0.00 0.00 23 1010.4
20260503225446 22 77 11.3 22.5 0.00 0.00 0.00 23 1010.3
20260503224925 22 115 8.0 22.5 0.00 0.00 0.00 23 1010.3
20260503223445 21 274 19.3 37.0 0.00 0.00 0.00 23 1010.6
20260503222446 21 126 12.9 27.4 0.00 0.00 0.00 24 1010.3
20260503221917 22 143 11.3 20.9 0.00 0.00 0.00 24 1010.3
20260503220445 22 115 6.4 12.9 0.00 0.00 0.00 22 1010.4
20260503220407 21 72 8.0 22.5 0.00 0.00 0.00 22 1010.4
20260503214934 21 311 22.5 49.9 0.00 0.00 0.00 24 1011.0
20260503213440 22 94 9.7 22.5 0.00 0.00 0.00 20 1010.7
20260503212912 22 89 14.5 27.4 0.00 0.00 0.00 19 1010.8
20260503211440 23 66 12.9 27.4 0.00 0.00 0.00 18 1010.7